Location: Newark
(40.9833°N, 0.0333°W)
Time: 08:04:43
(UTC+00:00)

Transit 4A - Pass Details

Date: 02 November 2020
Orbit: 862 x 982 km, 66.8° (Epoch: 26 November)

Event Time Altitude Azimuth Distance (km) Brightness Sun altitude
Rises 14:13:35 0° 218° (SW) 3,581 12.4 24.1°
Reaches altitude 10° 14:16:07 10° 221° (SW) 2,657 12.4 23.8°
Maximum altitude 14:22:17 64° 303° (WNW) 1,059 8.7 23.1°
Drops below altitude 10° 14:28:39 10° 25° (NNE) 2,733 9.9 22.2°
Sets 14:31:17 0° 28° (NNE) 3,690 10.5 21.9°
